Location: Lancaster
(34.6980°N, 118.1360°W)
Time: 15:59:42
(UTC-08:00)

N. Korean satellite - Pass Details

Date: 17 November 2017
Orbit: 460 x 515 km, 97.2° (Epoch: 18 November)

Event Time Altitude Azimuth Distance (km) Brightness Sun altitude
Rises 05:36:51 0° 35° (NE) 2,610 10.5 -10.9°
Reaches altitude 10° 05:39:52 10° 63° (ENE) 1,729 10.1 -10.3°
Maximum altitude 05:41:46 14° 94° (E) 1,518 10.4 -9.9°
Drops below altitude 10° 05:43:41 10° 124° (SE) 1,730 10.7 -9.5°
Sets 05:46:41 0° 152° (SSE) 2,614 11.0 -8.9°
